GIA874 WIII-RJTT

Flight info

Callsign GIA874
Flight time N/A
Altitude 37000
Route AMBOY2A/07L AMBOY P648 BUTAX R223 BRU W461 VSN A341 ANKUR/N0477F390 A341 ZAM G578 DILIS G467 ENDAX DCT KEITH A339 YOSHI A590 MOE/N0468F400 V18 XAC
Aircraft A333/H-SDE3GHIJ2J3J5M1RVWXY/LB2D1

Departure

Time 2026-04-30 08:02
Airport Soekarno-Hatta International Airport (WIII)

Arrival

Time N/A
Airport Tokyo Haneda International Airport (RJTT)
Time Latitude Longitude Altitude Speed Heading
2026-04-30 07:40 -6.12029 106.65327 41 ft 0 kts 225°
2026-04-30 07:40 -6.12045 106.65322 41 ft 0 kts 229°
2026-04-30 07:40 -6.12033 106.65337 41 ft 0 kts 231°
2026-04-30 07:40 -6.12037 106.65332 40 ft 0 kts 231°
2026-04-30 07:51 -6.12033 106.65337 41 ft 4 kts 231°
2026-04-30 07:51 -6.12016 106.65358 37 ft 4 kts 228°
2026-04-30 07:51 -6.11998 106.65377 39 ft 4 kts 220°
2026-04-30 07:51 -6.11976 106.65392 39 ft 4 kts 223°
2026-04-30 07:52 -6.11967 106.65406 41 ft 1 kts 290°
2026-04-30 07:54 -6.11961 106.65390 42 ft 4 kts 292°
2026-04-30 07:54 -6.11942 106.65354 42 ft 7 kts 300°
2026-04-30 07:55 -6.11907 106.65303 42 ft 10 kts 307°
2026-04-30 07:55 -6.11851 106.65249 42 ft 12 kts 329°
2026-04-30 07:55 -6.11784 106.65198 42 ft 13 kts 292°
2026-04-30 07:55 -6.11806 106.65111 43 ft 14 kts 248°
2026-04-30 07:56 -6.11845 106.65014 43 ft 16 kts 248°
2026-04-30 07:56 -6.11889 106.64904 41 ft 18 kts 248°
2026-04-30 07:56 -6.11937 106.64782 43 ft 19 kts 248°
2026-04-30 07:56 -6.11989 106.64654 43 ft 20 kts 248°
2026-04-30 07:57 -6.12039 106.64527 43 ft 20 kts 248°
2026-04-30 07:57 -6.12090 106.64400 42 ft 20 kts 248°
2026-04-30 07:57 -6.12140 106.64274 43 ft 19 kts 248°
2026-04-30 07:57 -6.12189 106.64150 42 ft 19 kts 248°
2026-04-30 07:58 -6.12238 106.64028 43 ft 19 kts 248°
2026-04-30 07:58 -6.12250 106.63925 43 ft 14 kts 299°
2026-04-30 07:58 -6.12228 106.63904 44 ft 0 kts 326°
2026-04-30 07:58 -6.12226 106.63903 44 ft 2 kts 326°
2026-04-30 07:59 -6.12186 106.63892 45 ft 10 kts 356°
2026-04-30 07:59 -6.12102 106.63918 45 ft 12 kts 30°
2026-04-30 07:59 -6.12072 106.63959 44 ft 0 kts 66°
2026-04-30 08:01 -6.12039 106.64034 44 ft 33 kts 65°
2026-04-30 08:01 -6.11881 106.64433 44 ft 88 kts 69°
2026-04-30 08:02 -6.11182 106.66193 90 ft 176 kts 67°
2026-04-30 08:02 -6.10725 106.67335 636 ft 175 kts 64°
2026-04-30 08:03 -6.09554 106.69327 1895 ft 177 kts 37°
2026-04-30 08:03 -6.07506 106.71200 2452 ft 222 kts 45°
2026-04-30 08:03 -6.06281 106.72253 2688 ft 242 kts 39°
2026-04-30 08:04 -6.04922 106.73316 3112 ft 253 kts 38°
2026-04-30 08:04 -6.03518 106.74389 3575 ft 261 kts 38°
2026-04-30 08:04 -6.02058 106.75495 4205 ft 263 kts 38°
2026-04-30 08:04 -6.00585 106.76605 4885 ft 265 kts 38°
2026-04-30 08:05 -5.99091 106.77730 5495 ft 269 kts 38°
2026-04-30 08:05 -5.97610 106.78843 6198 ft 270 kts 37°
2026-04-30 08:05 -5.96095 106.79981 6812 ft 274 kts 37°
2026-04-30 08:05 -5.94555 106.81137 7420 ft 278 kts 38°
2026-04-30 08:06 -5.92998 106.82306 8111 ft 280 kts 38°
2026-04-30 08:06 -5.91432 106.83481 8737 ft 284 kts 37°
2026-04-30 08:06 -5.89841 106.84675 9433 ft 286 kts 37°
2026-04-30 08:06 -5.88234 106.85881 10054 ft 290 kts 38°
2026-04-30 08:07 -5.86579 106.87124 10412 ft 304 kts 38°
2026-04-30 08:07 -5.85437 106.87983 10578 ft 315 kts 38°
2026-04-30 08:07 -5.83631 106.89339 10817 ft 332 kts 38°
2026-04-30 08:07 -5.81738 106.90759 11045 ft 347 kts 38°
2026-04-30 08:08 -5.79762 106.92242 11272 ft 362 kts 38°
2026-04-30 08:08 -5.77032 106.94289 11622 ft 377 kts 38°
2026-04-30 08:08 -5.75602 106.95361 11870 ft 382 kts 38°
2026-04-30 08:08 -5.73455 106.96970 12344 ft 386 kts 38°
2026-04-30 08:09 -5.71292 106.98591 12841 ft 390 kts 38°
2026-04-30 08:09 -5.69110 107.00226 13328 ft 394 kts 38°
2026-04-30 08:09 -5.66902 107.01882 13803 ft 397 kts 38°
2026-04-30 08:09 -5.64684 107.03544 14242 ft 399 kts 38°
2026-04-30 08:10 -5.62481 107.05195 14704 ft 402 kts 38°
2026-04-30 08:10 -5.60225 107.06886 15130 ft 404 kts 38°
2026-04-30 08:10 -5.57964 107.08580 15582 ft 407 kts 38°
2026-04-30 08:10 -5.55689 107.10285 16033 ft 409 kts 38°
2026-04-30 08:11 -5.53403 107.11998 16457 ft 411 kts 38°
2026-04-30 08:11 -5.51108 107.13718 16885 ft 413 kts 38°
2026-04-30 08:11 -5.48797 107.15449 17301 ft 416 kts 38°
2026-04-30 08:11 -5.46472 107.17190 17737 ft 417 kts 38°
2026-04-30 08:12 -5.44150 107.18930 18133 ft 419 kts 38°
2026-04-30 08:12 -5.41806 107.20685 18478 ft 421 kts 38°
2026-04-30 08:12 -5.39449 107.22450 18775 ft 424 kts 38°
2026-04-30 08:12 -5.37078 107.24226 19101 ft 426 kts 38°
2026-04-30 08:13 -5.34695 107.26009 19425 ft 428 kts 38°
2026-04-30 08:13 -5.32296 107.27806 19655 ft 430 kts 38°
2026-04-30 08:13 -5.29891 107.29606 20036 ft 432 kts 38°
2026-04-30 08:13 -5.27479 107.31411 20343 ft 434 kts 38°
2026-04-30 08:14 -5.25041 107.33236 20650 ft 436 kts 38°
2026-04-30 08:14 -5.22601 107.35062 20931 ft 438 kts 38°
2026-04-30 08:14 -5.20150 107.36895 21225 ft 440 kts 38°
2026-04-30 08:14 -5.17686 107.38739 21511 ft 442 kts 38°
2026-04-30 08:15 -5.15235 107.40573 21808 ft 445 kts 38°
2026-04-30 08:15 -5.12750 107.42432 22089 ft 447 kts 38°
2026-04-30 08:15 -5.10252 107.44300 22381 ft 449 kts 38°
2026-04-30 08:15 -5.07733 107.46184 22699 ft 450 kts 38°
2026-04-30 08:16 -5.05220 107.48063 23006 ft 451 kts 38°
2026-04-30 08:16 -5.02699 107.49948 23279 ft 453 kts 38°
2026-04-30 08:16 -5.00192 107.51823 23535 ft 456 kts 38°
2026-04-30 08:16 -4.97640 107.53731 23762 ft 458 kts 38°
2026-04-30 08:17 -4.95072 107.55651 23993 ft 459 kts 38°
2026-04-30 08:17 -4.92512 107.57564 24213 ft 461 kts 38°
2026-04-30 08:17 -4.89928 107.59495 24450 ft 463 kts 38°
2026-04-30 08:17 -4.87341 107.61428 24691 ft 465 kts 38°
2026-04-30 08:18 -4.84739 107.63373 24930 ft 466 kts 38°
2026-04-30 08:18 -4.82162 107.65299 25154 ft 468 kts 38°
2026-04-30 08:18 -4.79546 107.67252 25393 ft 470 kts 38°
2026-04-30 08:18 -4.76921 107.69213 25629 ft 471 kts 38°
2026-04-30 08:19 -4.74287 107.71181 25868 ft 473 kts 38°
2026-04-30 08:19 -4.71637 107.73161 26100 ft 475 kts 38°
2026-04-30 08:19 -4.68976 107.75148 26324 ft 477 kts 38°
2026-04-30 08:19 -4.66310 107.77138 26555 ft 479 kts 38°
2026-04-30 08:20 -4.63658 107.79119 26769 ft 480 kts 38°
2026-04-30 08:20 -4.60967 107.81128 27008 ft 482 kts 38°
2026-04-30 08:20 -4.58266 107.83144 27237 ft 484 kts 38°
2026-04-30 08:20 -4.55556 107.85167 27464 ft 486 kts 38°
2026-04-30 08:21 -4.52842 107.87192 27687 ft 487 kts 38°
2026-04-30 08:21 -4.50113 107.89229 27909 ft 489 kts 38°
2026-04-30 08:21 -4.47386 107.91264 28130 ft 491 kts 38°
2026-04-30 08:21 -4.44632 107.93318 28359 ft 492 kts 38°
2026-04-30 08:22 -4.41918 107.95344 28551 ft 494 kts 38°
2026-04-30 08:22 -4.39153 107.97406 28787 ft 495 kts 38°
2026-04-30 08:22 -4.36390 107.99467 29102 ft 494 kts 38°
2026-04-30 08:22 -4.33644 108.01515 29459 ft 492 kts 38°
2026-04-30 08:23 -4.30905 108.03557 29864 ft 489 kts 38°
2026-04-30 08:23 -4.28176 108.05592 30149 ft 489 kts 38°
2026-04-30 08:23 -4.25445 108.07629 30402 ft 488 kts 38°
2026-04-30 08:23 -4.22719 108.09662 30645 ft 488 kts 38°
2026-04-30 08:24 -4.19993 108.11694 30897 ft 487 kts 37°
2026-04-30 08:24 -4.17311 108.13693 31171 ft 486 kts 37°
2026-04-30 08:24 -4.14598 108.15716 31431 ft 486 kts 37°
2026-04-30 08:24 -4.11900 108.17755 31692 ft 485 kts 38°
2026-04-30 08:25 -4.09233 108.19820 31955 ft 484 kts 39°
2026-04-30 08:25 -4.06568 108.21910 32212 ft 483 kts 39°
2026-04-30 08:25 -4.03927 108.23991 32480 ft 482 kts 39°
2026-04-30 08:25 -4.01299 108.26062 32738 ft 481 kts 39°
2026-04-30 08:26 -3.98666 108.28134 32999 ft 481 kts 39°
2026-04-30 08:26 -3.96024 108.30208 33171 ft 482 kts 39°
2026-04-30 08:26 -3.93375 108.32284 33355 ft 483 kts 39°
2026-04-30 08:26 -3.90762 108.34330 33592 ft 483 kts 39°
2026-04-30 08:27 -3.88119 108.36398 33850 ft 482 kts 39°
2026-04-30 08:27 -3.85479 108.38463 34057 ft 481 kts 39°
2026-04-30 08:27 -3.82843 108.40525 34266 ft 481 kts 39°
2026-04-30 08:27 -3.80210 108.42584 34497 ft 480 kts 39°
2026-04-30 08:28 -3.77581 108.44641 34715 ft 479 kts 39°
2026-04-30 08:28 -3.74950 108.46699 34893 ft 479 kts 39°
2026-04-30 08:28 -3.72321 108.48755 35108 ft 479 kts 39°
2026-04-30 08:28 -3.69697 108.50807 35313 ft 478 kts 39°
2026-04-30 08:29 -3.67081 108.52853 35518 ft 477 kts 39°
2026-04-30 08:29 -3.64463 108.54900 35713 ft 477 kts 39°
2026-04-30 08:29 -3.61849 108.56945 35897 ft 477 kts 39°
2026-04-30 08:29 -3.59230 108.58992 36089 ft 476 kts 39°
2026-04-30 08:30 -3.56648 108.61010 36279 ft 476 kts 39°
2026-04-30 08:30 -3.54026 108.63060 36478 ft 475 kts 39°
2026-04-30 08:30 -3.51408 108.65107 36686 ft 475 kts 39°
2026-04-30 08:30 -3.48839 108.67114 36840 ft 475 kts 39°
2026-04-30 08:31 -3.46236 108.69149 36871 ft 475 kts 39°
2026-04-30 08:31 -3.41014 108.73230 36870 ft 474 kts 39°
2026-04-30 08:32 -3.35808 108.77298 36870 ft 474 kts 39°
2026-04-30 08:32 -3.30601 108.81366 36873 ft 475 kts 39°
2026-04-30 08:33 -3.25390 108.85436 36872 ft 475 kts 39°
2026-04-30 08:33 -3.20203 108.89488 36872 ft 475 kts 39°
2026-04-30 08:34 -3.14983 108.93564 36874 ft 475 kts 39°
2026-04-30 08:34 -3.09773 108.97632 36872 ft 475 kts 39°
2026-04-30 08:35 -3.04566 109.01698 36873 ft 475 kts 39°
2026-04-30 08:35 -2.99375 109.05750 36873 ft 475 kts 39°
2026-04-30 08:36 -2.94154 109.09826 36873 ft 475 kts 39°
2026-04-30 08:36 -2.88941 109.13901 36873 ft 476 kts 39°
2026-04-30 08:37 -2.83751 109.18068 36870 ft 478 kts 40°
2026-04-30 08:37 -2.78590 109.22262 36870 ft 478 kts 40°
2026-04-30 08:38 -2.73425 109.26456 36869 ft 478 kts 40°
2026-04-30 08:38 -2.68246 109.30650 36871 ft 478 kts 40°
2026-04-30 08:39 -2.63075 109.34832 36871 ft 478 kts 40°
2026-04-30 08:39 -2.57927 109.38996 36870 ft 478 kts 40°
2026-04-30 08:40 -2.52743 109.43188 36870 ft 478 kts 40°
2026-04-30 08:40 -2.47559 109.47379 36871 ft 478 kts 40°
2026-04-30 08:41 -2.42433 109.51524 36869 ft 475 kts 40°
2026-04-30 08:41 -2.37289 109.55683 36867 ft 475 kts 40°
2026-04-30 08:42 -2.32153 109.59835 36867 ft 475 kts 40°
2026-04-30 08:42 -2.27006 109.63996 36862 ft 475 kts 40°
2026-04-30 08:43 -2.21861 109.68155 36860 ft 475 kts 40°
2026-04-30 08:43 -2.16718 109.72311 36862 ft 475 kts 40°
2026-04-30 08:44 -2.11583 109.76461 36862 ft 474 kts 41°
2026-04-30 08:44 -2.06449 109.80609 36861 ft 474 kts 40°
2026-04-30 08:45 -2.01348 109.84730 36862 ft 474 kts 40°
2026-04-30 08:45 -1.96225 109.88870 36863 ft 473 kts 40°
2026-04-30 08:46 -1.91099 109.93011 36862 ft 473 kts 40°
2026-04-30 08:46 -1.85975 109.97150 36854 ft 474 kts 40°
2026-04-30 08:47 -1.80842 110.01296 36854 ft 474 kts 40°
2026-04-30 08:47 -1.75720 110.05433 36853 ft 472 kts 40°
2026-04-30 08:48 -1.70643 110.09533 36853 ft 471 kts 40°
2026-04-30 08:48 -1.65497 110.13604 36853 ft 472 kts 39°
2026-04-30 08:49 -1.60262 110.17576 36853 ft 473 kts 38°
2026-04-30 08:49 -1.55004 110.21541 36853 ft 473 kts 39°
2026-04-30 08:50 -1.49760 110.25511 36854 ft 473 kts 39°
2026-04-30 08:50 -1.44516 110.29494 36853 ft 473 kts 39°
2026-04-30 08:51 -1.39317 110.33446 36857 ft 473 kts 38°
2026-04-30 08:51 -1.34075 110.37430 36853 ft 473 kts 38°
2026-04-30 08:52 -1.28838 110.41414 36853 ft 473 kts 39°
2026-04-30 08:52 -1.23628 110.45454 36854 ft 473 kts 39°
2026-04-30 08:53 -1.19315 110.48829 36853 ft 474 kts 39°
2026-04-30 08:53 -1.14112 110.52899 36856 ft 475 kts 39°
2026-04-30 08:54 -1.08897 110.56970 36852 ft 475 kts 39°
2026-04-30 08:54 -1.03718 110.61010 36853 ft 474 kts 39°
2026-04-30 08:55 -0.98532 110.65053 36853 ft 473 kts 39°
2026-04-30 08:55 -0.93344 110.69099 36855 ft 473 kts 39°
2026-04-30 08:56 -0.88158 110.73144 36857 ft 473 kts 39°
2026-04-30 08:56 -0.82974 110.77186 36863 ft 473 kts 39°
2026-04-30 08:57 -0.77788 110.81230 36858 ft 473 kts 39°
2026-04-30 08:57 -0.72600 110.85275 36861 ft 473 kts 39°
2026-04-30 08:58 -0.67405 110.89326 36872 ft 475 kts 39°
2026-04-30 08:58 -0.62188 110.93394 36870 ft 476 kts 39°
2026-04-30 08:59 -0.56968 110.97464 36867 ft 476 kts 39°
2026-04-30 08:59 -0.51775 111.01512 36871 ft 476 kts 39°
2026-04-30 09:00 -0.46548 111.05588 36870 ft 476 kts 39°
2026-04-30 09:00 -0.41328 111.09657 36865 ft 476 kts 39°
2026-04-30 09:01 -0.36106 111.13724 36864 ft 476 kts 39°
2026-04-30 09:01 -0.30872 111.17786 36861 ft 476 kts 38°
2026-04-30 09:02 -0.23024 111.23870 36856 ft 475 kts 38°
2026-04-30 09:02 -0.17800 111.27923 36856 ft 475 kts 38°
2026-04-30 09:03 -0.12576 111.31976 36853 ft 475 kts 38°
2026-04-30 09:03 -0.07349 111.36032 36854 ft 475 kts 38°
2026-04-30 09:04 -0.02152 111.40063 36854 ft 475 kts 38°
2026-04-30 09:04 0.03071 111.44116 36853 ft 476 kts 39°
2026-04-30 09:05 0.08315 111.48185 36853 ft 477 kts 39°
2026-04-30 09:05 0.13552 111.52248 36854 ft 477 kts 39°
2026-04-30 09:06 0.18791 111.56313 36854 ft 477 kts 39°
2026-04-30 09:06 0.24032 111.60380 36853 ft 477 kts 39°
2026-04-30 09:07 0.29261 111.64436 36854 ft 477 kts 39°
2026-04-30 09:07 0.34508 111.68507 36854 ft 477 kts 39°
2026-04-30 09:08 0.39708 111.72542 36853 ft 477 kts 39°
2026-04-30 09:08 0.44947 111.76607 36854 ft 477 kts 39°
2026-04-30 09:09 0.50189 111.80675 36849 ft 476 kts 39°
2026-04-30 09:09 0.55434 111.84744 36854 ft 476 kts 39°
2026-04-30 09:10 0.60667 111.88805 36853 ft 476 kts 39°
2026-04-30 09:10 0.65901 111.92867 36854 ft 476 kts 39°
2026-04-30 09:11 0.71137 111.96930 36852 ft 476 kts 39°
2026-04-30 09:11 0.76387 112.01004 36852 ft 478 kts 39°
2026-04-30 09:12 0.81631 112.05074 36852 ft 478 kts 39°
2026-04-30 09:12 0.86890 112.09155 36850 ft 478 kts 39°
2026-04-30 09:13 0.92103 112.13201 36850 ft 478 kts 39°
2026-04-30 09:13 0.97354 112.17276 36851 ft 478 kts 39°
2026-04-30 09:14 1.02603 112.21350 36853 ft 478 kts 39°
2026-04-30 09:14 1.07852 112.25425 36854 ft 478 kts 39°
2026-04-30 09:15 1.13110 112.29506 36860 ft 478 kts 39°
2026-04-30 09:15 1.18366 112.33586 36859 ft 478 kts 39°
2026-04-30 09:16 1.23625 112.37669 36860 ft 478 kts 39°
2026-04-30 09:16 1.28870 112.41740 36865 ft 478 kts 39°
2026-04-30 09:17 1.34132 112.45826 36862 ft 478 kts 39°
2026-04-30 09:17 1.39346 112.49875 36861 ft 478 kts 39°
2026-04-30 09:18 1.44605 112.53959 36867 ft 478 kts 39°
2026-04-30 09:18 1.49865 112.58043 36867 ft 478 kts 39°
2026-04-30 09:19 1.55121 112.62125 36859 ft 478 kts 39°
2026-04-30 09:19 1.60338 112.66195 36860 ft 478 kts 39°
2026-04-30 09:20 1.65583 112.70312 36862 ft 478 kts 39°
2026-04-30 09:20 1.70820 112.74425 36851 ft 478 kts 39°
2026-04-30 09:21 1.76024 112.78510 36851 ft 478 kts 39°
2026-04-30 09:21 1.81268 112.82625 36852 ft 479 kts 39°
2026-04-30 09:22 1.86518 112.86744 36844 ft 480 kts 39°
2026-04-30 09:22 1.91775 112.90869 36844 ft 480 kts 39°
2026-04-30 09:23 1.96996 112.94967 36844 ft 480 kts 39°
2026-04-30 09:23 2.02252 112.99092 36839 ft 480 kts 39°
2026-04-30 09:24 2.07501 113.03212 36841 ft 480 kts 39°
2026-04-30 09:24 2.12745 113.07329 36837 ft 480 kts 39°
2026-04-30 09:25 2.18000 113.11454 36830 ft 479 kts 39°
2026-04-30 09:25 2.23251 113.15576 36832 ft 479 kts 39°
2026-04-30 09:26 2.28490 113.19690 36832 ft 479 kts 39°
2026-04-30 09:26 2.33694 113.23777 36831 ft 479 kts 39°
2026-04-30 09:27 2.38939 113.27896 36834 ft 479 kts 39°
2026-04-30 09:27 2.44178 113.32011 36834 ft 479 kts 39°
2026-04-30 09:28 2.49424 113.36132 36836 ft 479 kts 39°
2026-04-30 09:28 2.54673 113.40256 36832 ft 480 kts 39°
2026-04-30 09:29 2.59888 113.44353 36832 ft 479 kts 39°
2026-04-30 09:29 2.65126 113.48468 36831 ft 478 kts 39°
2026-04-30 09:30 2.70362 113.52583 36835 ft 478 kts 39°
2026-04-30 09:30 2.75597 113.56698 36833 ft 478 kts 39°
2026-04-30 09:31 2.80822 113.60812 36831 ft 478 kts 39°
2026-04-30 09:31 2.86030 113.64920 36835 ft 479 kts 39°
2026-04-30 09:32 2.91280 113.69061 36833 ft 479 kts 39°
2026-04-30 09:32 2.96482 113.73164 36831 ft 479 kts 39°
2026-04-30 09:33 3.01720 113.77295 36838 ft 478 kts 39°
2026-04-30 09:33 3.06930 113.81405 36838 ft 476 kts 39°
2026-04-30 09:34 3.12134 113.85511 36837 ft 476 kts 39°
2026-04-30 09:34 3.17336 113.89616 36844 ft 476 kts 39°
2026-04-30 09:35 3.22504 113.93694 36837 ft 475 kts 39°
2026-04-30 09:35 3.27701 113.97796 36838 ft 475 kts 39°
2026-04-30 09:36 3.32892 114.01894 36842 ft 475 kts 39°
2026-04-30 09:36 3.38055 114.05969 36838 ft 475 kts 39°
2026-04-30 09:37 3.43246 114.10068 36832 ft 474 kts 39°
2026-04-30 09:37 3.48432 114.14163 36835 ft 473 kts 39°
2026-04-30 09:38 3.53571 114.18222 36827 ft 473 kts 39°
2026-04-30 09:38 3.58743 114.22308 36827 ft 473 kts 39°
2026-04-30 09:39 3.63920 114.26397 36829 ft 473 kts 39°
2026-04-30 09:39 3.68219 114.29795 36829 ft 473 kts 39°
2026-04-30 09:40 3.73395 114.33885 36826 ft 473 kts 39°
2026-04-30 09:40 3.78574 114.37979 36827 ft 473 kts 39°
2026-04-30 09:41 3.83716 114.42044 36823 ft 474 kts 39°
2026-04-30 09:41 3.88890 114.46134 36824 ft 474 kts 39°
2026-04-30 09:42 3.94080 114.50218 36827 ft 474 kts 38°
2026-04-30 09:42 3.99345 114.54206 36830 ft 474 kts 38°
2026-04-30 09:43 4.04640 114.58164 36832 ft 474 kts 38°
2026-04-30 09:43 4.09888 114.62097 36829 ft 474 kts 38°
2026-04-30 09:44 4.15170 114.66069 36846 ft 474 kts 38°
2026-04-30 09:44 4.20435 114.70033 36846 ft 474 kts 38°
2026-04-30 09:45 4.25706 114.74003 37031 ft 473 kts 38°
2026-04-30 09:45 4.28339 114.75987 37193 ft 473 kts 38°
2026-04-30 09:45 4.30981 114.77977 37392 ft 473 kts 38°
2026-04-30 09:46 4.33615 114.79961 37567 ft 473 kts 38°
2026-04-30 09:46 4.36246 114.81943 37770 ft 473 kts 38°
2026-04-30 09:46 4.38858 114.83881 37941 ft 472 kts 35°
2026-04-30 09:46 4.41683 114.85562 38121 ft 473 kts 27°
2026-04-30 09:47 4.44738 114.86803 38266 ft 475 kts 18°
2026-04-30 09:47 4.47975 114.87516 38421 ft 476 kts
2026-04-30 09:47 4.51276 114.87793 38565 ft 476 kts
2026-04-30 09:47 4.54602 114.87932 38661 ft 477 kts
2026-04-30 09:48 4.57927 114.88001 38799 ft 477 kts
2026-04-30 09:48 4.61247 114.88043 38832 ft 477 kts
2026-04-30 09:48 4.67855 114.88132 38840 ft 474 kts
2026-04-30 09:49 4.74410 114.88290 38834 ft 473 kts
2026-04-30 09:49 4.80790 114.89691 38837 ft 470 kts 22°
2026-04-30 09:50 4.83717 114.91143 38837 ft 468 kts 33°
2026-04-30 09:50 4.86338 114.93077 38838 ft 467 kts 43°
2026-04-30 09:50 4.90345 114.98143 38836 ft 465 kts 63°
2026-04-30 09:51 4.92736 115.04166 38829 ft 466 kts 71°
2026-04-30 09:51 4.94733 115.10367 38833 ft 467 kts 72°
2026-04-30 09:52 4.96684 115.16536 38832 ft 467 kts 72°
2026-04-30 09:52 4.98686 115.22737 38832 ft 467 kts 72°
2026-04-30 09:53 5.00711 115.28930 38832 ft 467 kts 72°
2026-04-30 09:53 5.02744 115.35127 38836 ft 467 kts 72°
2026-04-30 09:54 5.04767 115.41299 38844 ft 466 kts 72°
2026-04-30 09:54 5.06792 115.47486 38844 ft 466 kts 72°
2026-04-30 09:55 5.08812 115.53660 38836 ft 466 kts 72°
2026-04-30 09:55 5.10830 115.59832 38838 ft 466 kts 72°
2026-04-30 09:56 5.12837 115.65972 38843 ft 465 kts 72°
2026-04-30 09:56 5.14848 115.72129 38839 ft 462 kts 72°
2026-04-30 09:57 5.16841 115.78268 38844 ft 462 kts 72°
2026-04-30 09:57 5.18832 115.84409 38847 ft 463 kts 72°
2026-04-30 09:58 5.20812 115.90518 38846 ft 463 kts 72°
2026-04-30 09:58 5.22806 115.96669 38839 ft 463 kts 72°
2026-04-30 09:59 5.26783 116.08946 38839 ft 462 kts 72°
2026-04-30 10:00 5.29765 116.18156 38841 ft 462 kts 72°
2026-04-30 10:01 5.32746 116.27366 38844 ft 462 kts 73°
2026-04-30 10:02 5.35712 116.36535 38853 ft 462 kts 73°
2026-04-30 10:02 5.37693 116.42663 38857 ft 462 kts 73°
2026-04-30 10:03 5.39673 116.48791 38856 ft 462 kts 73°
2026-04-30 10:03 5.41652 116.54919 38859 ft 462 kts 73°
2026-04-30 10:04 5.43633 116.61051 38858 ft 460 kts 73°
2026-04-30 10:04 5.45595 116.67128 38873 ft 461 kts 73°
2026-04-30 10:05 5.47573 116.73253 38874 ft 462 kts 73°
2026-04-30 10:05 5.49555 116.79390 38866 ft 462 kts 73°
2026-04-30 10:06 5.51528 116.85502 38865 ft 462 kts 73°
2026-04-30 10:06 5.53506 116.91632 38855 ft 461 kts 73°
2026-04-30 10:07 5.55482 116.97758 38856 ft 461 kts 73°
2026-04-30 10:07 5.57458 117.03890 38857 ft 461 kts 73°
2026-04-30 10:08 5.59432 117.10014 38855 ft 461 kts 73°
2026-04-30 10:08 5.61400 117.16140 38851 ft 461 kts 73°
2026-04-30 10:09 5.63365 117.22276 38852 ft 461 kts 73°
2026-04-30 10:09 5.65322 117.28387 38851 ft 462 kts 73°
2026-04-30 10:10 5.67290 117.34536 38848 ft 462 kts 73°
2026-04-30 10:10 5.69256 117.40680 38850 ft 462 kts 73°
2026-04-30 10:11 5.71223 117.46830 38854 ft 462 kts 73°
2026-04-30 10:11 5.73173 117.52977 38850 ft 462 kts 73°
2026-04-30 10:12 5.75116 117.59126 38854 ft 462 kts 73°
2026-04-30 10:12 5.77061 117.65284 38854 ft 462 kts 73°
2026-04-30 10:13 5.79003 117.71431 38852 ft 462 kts 73°
2026-04-30 10:13 5.80934 117.77544 38854 ft 462 kts 73°
2026-04-30 10:14 5.82878 117.83698 38848 ft 462 kts 73°
2026-04-30 10:14 5.85790 117.92924 38835 ft 462 kts 73°
2026-04-30 10:15 5.87733 117.99082 38829 ft 462 kts 73°
2026-04-30 10:15 5.89674 118.05238 38828 ft 462 kts 73°
2026-04-30 10:16 5.91482 118.11395 38860 ft 461 kts 76°
2026-04-30 10:17 5.93899 118.20743 38867 ft 460 kts 77°
2026-04-30 10:17 5.96304 118.30044 38870 ft 460 kts 77°
2026-04-30 10:18 5.97935 118.36269 38872 ft 460 kts 77°
2026-04-30 10:19 6.00378 118.45581 38871 ft 461 kts 76°
2026-04-30 10:19 6.02012 118.51816 38874 ft 461 kts 76°
2026-04-30 10:20 6.03638 118.58050 38869 ft 462 kts 77°
2026-04-30 10:20 6.06068 118.67426 38870 ft 462 kts 76°
2026-04-30 10:21 6.07686 118.73673 38869 ft 462 kts 76°
2026-04-30 10:21 6.09297 118.79892 38870 ft 462 kts 76°
2026-04-30 10:22 6.10914 118.86139 38871 ft 462 kts 77°
2026-04-30 10:22 6.12529 118.92379 38870 ft 462 kts 77°
2026-04-30 10:23 6.14147 118.98634 38871 ft 462 kts 76°
2026-04-30 10:23 6.15764 119.04892 38873 ft 462 kts 76°
2026-04-30 10:24 6.17380 119.11145 38872 ft 462 kts 76°
2026-04-30 10:24 6.18996 119.17404 38873 ft 462 kts 76°
2026-04-30 10:25 6.20337 119.22596 38873 ft 462 kts 76°
2026-04-30 10:25 6.21950 119.28849 38871 ft 462 kts 76°
2026-04-30 10:26 6.23563 119.35104 38874 ft 462 kts 76°
2026-04-30 10:26 6.25440 119.42388 38872 ft 462 kts 76°
2026-04-30 10:27 6.26782 119.47598 38875 ft 462 kts 76°
2026-04-30 10:27 6.28397 119.53869 38872 ft 462 kts 76°
2026-04-30 10:28 6.30006 119.60122 38873 ft 462 kts 76°
2026-04-30 10:28 6.31615 119.66378 38873 ft 462 kts 76°
2026-04-30 10:29 6.33220 119.72620 38871 ft 462 kts 76°
2026-04-30 10:29 6.34816 119.78834 38870 ft 462 kts 76°
2026-04-30 10:30 6.36421 119.85084 38872 ft 461 kts 76°
2026-04-30 10:30 6.38025 119.91331 38875 ft 461 kts 76°
2026-04-30 10:31 6.39624 119.97568 38873 ft 461 kts 76°
2026-04-30 10:31 6.41223 120.03805 38873 ft 461 kts 76°
2026-04-30 10:32 6.42822 120.10042 38873 ft 461 kts 76°
2026-04-30 10:32 6.44422 120.16293 38872 ft 460 kts 76°
2026-04-30 10:33 6.46020 120.22534 38874 ft 460 kts 76°
2026-04-30 10:33 6.47606 120.28733 38873 ft 460 kts 76°
2026-04-30 10:34 6.49202 120.34975 38873 ft 460 kts 76°
2026-04-30 10:34 6.50796 120.41211 38872 ft 460 kts 76°
2026-04-30 10:35 6.52389 120.47448 38870 ft 461 kts 76°
2026-04-30 10:35 6.53987 120.53708 38872 ft 461 kts 76°
2026-04-30 10:36 6.55579 120.59947 38874 ft 461 kts 76°
2026-04-30 10:36 6.57162 120.66154 38873 ft 461 kts 76°
2026-04-30 10:37 6.58754 120.72404 38873 ft 461 kts 76°
2026-04-30 10:37 6.60345 120.78648 38875 ft 461 kts 76°
2026-04-30 10:38 6.61935 120.84893 38876 ft 461 kts 76°
2026-04-30 10:38 6.63525 120.91143 38875 ft 461 kts 76°
2026-04-30 10:39 6.65103 120.97347 38868 ft 461 kts 76°
2026-04-30 10:39 6.66690 121.03593 38869 ft 460 kts 76°
2026-04-30 10:40 6.68274 121.09829 38870 ft 460 kts 76°
2026-04-30 10:40 6.69860 121.16074 38870 ft 460 kts 76°
2026-04-30 10:41 6.71442 121.22312 38870 ft 460 kts 76°
2026-04-30 10:41 6.73016 121.28516 38873 ft 460 kts 76°
2026-04-30 10:42 6.74598 121.34758 38869 ft 460 kts 76°
2026-04-30 10:42 6.76181 121.41009 38870 ft 460 kts 76°
2026-04-30 10:43 6.77765 121.47267 38864 ft 460 kts 76°
2026-04-30 10:43 6.79345 121.53511 38862 ft 460 kts 76°
2026-04-30 10:44 6.80923 121.59751 38863 ft 461 kts 76°
2026-04-30 10:44 6.82504 121.66009 38862 ft 461 kts 76°
2026-04-30 10:45 6.84074 121.72225 38862 ft 461 kts 76°
2026-04-30 10:45 6.85662 121.78518 38858 ft 461 kts 76°
2026-04-30 10:46 6.87239 121.84769 38860 ft 461 kts 76°
2026-04-30 10:46 6.88808 121.90994 38859 ft 461 kts 76°
2026-04-30 10:47 6.90393 121.97245 38861 ft 461 kts 74°
2026-04-30 10:47 6.92945 122.03155 38859 ft 462 kts 58°
2026-04-30 10:48 6.97228 122.07969 38859 ft 465 kts 39°
2026-04-30 10:48 7.02672 122.11452 38858 ft 467 kts 31°
2026-04-30 10:49 7.08361 122.14629 38863 ft 468 kts 30°
2026-04-30 10:49 7.14069 122.17779 38867 ft 468 kts 30°
2026-04-30 10:50 7.19757 122.20963 38868 ft 468 kts 31°
2026-04-30 10:50 7.25440 122.24173 38869 ft 468 kts 31°
2026-04-30 10:51 7.31131 122.27397 38872 ft 468 kts 31°
2026-04-30 10:51 7.36765 122.30588 38870 ft 468 kts 31°
2026-04-30 10:52 7.42449 122.33806 38874 ft 467 kts 31°
2026-04-30 10:52 7.48109 122.37011 38876 ft 466 kts 31°
2026-04-30 10:53 7.53759 122.40211 38875 ft 465 kts 31°
2026-04-30 10:53 7.59397 122.43407 38877 ft 465 kts 31°
2026-04-30 10:54 7.64999 122.46582 38881 ft 465 kts 31°
2026-04-30 10:54 7.70644 122.49782 38883 ft 465 kts 32°
2026-04-30 10:55 7.76287 122.52982 38883 ft 465 kts 32°
2026-04-30 10:55 7.81938 122.56189 38884 ft 465 kts 32°
2026-04-30 10:56 7.87591 122.59397 38884 ft 466 kts 32°
2026-04-30 10:56 7.93237 122.62602 38887 ft 466 kts 32°
2026-04-30 10:57 7.98844 122.65786 38884 ft 465 kts 32°
2026-04-30 10:57 8.04485 122.68991 38885 ft 466 kts 32°
2026-04-30 10:58 8.10140 122.72205 38886 ft 466 kts 32°
2026-04-30 10:58 8.15796 122.75420 38887 ft 466 kts 32°
2026-04-30 10:59 8.21444 122.78631 38885 ft 466 kts 32°
2026-04-30 10:59 8.27098 122.81847 38884 ft 466 kts 32°
2026-04-30 11:00 8.32713 122.85043 38890 ft 468 kts 32°
2026-04-30 11:00 8.38394 122.88277 38890 ft 469 kts 32°
2026-04-30 11:01 8.44076 122.91512 38884 ft 468 kts 32°
2026-04-30 11:01 8.49753 122.94744 38888 ft 467 kts 32°
2026-04-30 11:02 8.55412 122.97969 38888 ft 467 kts 32°
2026-04-30 11:02 8.61041 123.01177 38890 ft 468 kts 32°
2026-04-30 11:03 8.66737 123.04425 38886 ft 471 kts 32°
2026-04-30 11:04 8.75296 123.09308 38893 ft 471 kts 32°
2026-04-30 11:04 8.81016 123.12571 38892 ft 471 kts 32°
2026-04-30 11:05 8.86723 123.15829 38886 ft 471 kts 32°
2026-04-30 11:05 8.92390 123.19065 38894 ft 471 kts 32°
2026-04-30 11:06 8.98115 123.22337 38894 ft 473 kts 32°
2026-04-30 11:06 9.03855 123.25617 38885 ft 473 kts 32°
2026-04-30 11:07 9.09586 123.28893 38883 ft 473 kts 32°
2026-04-30 11:07 9.15315 123.32170 38908 ft 473 kts 32°
2026-04-30 11:08 9.21046 123.35449 38915 ft 474 kts 32°
2026-04-30 11:08 9.26787 123.38735 38914 ft 474 kts 32°
2026-04-30 11:09 9.32500 123.42005 38914 ft 474 kts 32°
2026-04-30 11:09 9.38252 123.45300 38913 ft 474 kts 32°
2026-04-30 11:10 9.43996 123.48591 38906 ft 474 kts 32°
2026-04-30 11:10 9.49736 123.51882 38895 ft 473 kts 32°
2026-04-30 11:11 9.55454 123.55160 38882 ft 471 kts 32°
2026-04-30 11:11 9.60186 123.57875 38877 ft 470 kts 32°
2026-04-30 11:12 9.65881 123.61145 38877 ft 470 kts 32°
2026-04-30 11:12 9.71575 123.64415 38873 ft 470 kts 32°
2026-04-30 11:13 9.77276 123.67691 38876 ft 470 kts 32°
2026-04-30 11:13 9.82969 123.70965 38879 ft 470 kts 31°
2026-04-30 11:14 9.88627 123.74219 38881 ft 470 kts 31°
2026-04-30 11:14 9.94323 123.77495 38882 ft 470 kts 31°
2026-04-30 11:15 10.00020 123.80772 38889 ft 470 kts 31°
2026-04-30 11:15 10.05722 123.84053 38901 ft 470 kts 32°
2026-04-30 11:16 10.11423 123.87336 38908 ft 472 kts 32°
2026-04-30 11:16 10.17104 123.90609 38912 ft 473 kts 32°
2026-04-30 11:17 10.22831 123.93909 38917 ft 473 kts 32°
2026-04-30 11:17 10.28541 123.97221 38910 ft 471 kts 34°
2026-04-30 11:18 10.33568 124.01399 38915 ft 466 kts 47°
2026-04-30 11:18 10.40201 124.08669 38914 ft 469 kts 50°
2026-04-30 11:19 10.44549 124.13623 38909 ft 469 kts 50°
2026-04-30 11:19 10.48883 124.18538 38902 ft 470 kts 50°
2026-04-30 11:20 10.53255 124.23472 38908 ft 470 kts 50°
2026-04-30 11:20 10.57634 124.28407 38887 ft 470 kts 50°
2026-04-30 11:21 10.62021 124.33351 38889 ft 471 kts 50°
2026-04-30 11:21 10.66398 124.38288 38890 ft 472 kts 50°
2026-04-30 11:22 10.70801 124.43258 38894 ft 472 kts 50°
2026-04-30 11:22 10.75202 124.48230 38895 ft 472 kts 50°
2026-04-30 11:23 10.79608 124.53209 38898 ft 473 kts 50°
2026-04-30 11:24 10.86183 124.60641 38919 ft 473 kts 50°
2026-04-30 11:24 10.90593 124.65628 38911 ft 474 kts 50°
2026-04-30 11:25 10.97217 124.73126 38914 ft 474 kts 50°
2026-04-30 11:26 11.06043 124.83125 38927 ft 476 kts 49°
2026-04-30 11:26 11.10479 124.88153 38920 ft 476 kts 49°
2026-04-30 11:27 11.14911 124.93179 38922 ft 476 kts 49°
2026-04-30 11:27 11.19341 124.98190 38922 ft 477 kts 47°
2026-04-30 11:28 11.24534 125.02377 38922 ft 479 kts 29°
2026-04-30 11:28 11.27565 125.03784 38926 ft 479 kts 20°
2026-04-30 11:29 11.33904 125.05858 38938 ft 481 kts 17°
2026-04-30 11:29 11.43589 125.08616 38939 ft 482 kts 16°
2026-04-30 11:30 11.53286 125.11415 38944 ft 484 kts 17°
2026-04-30 11:31 11.59765 125.13316 38935 ft 484 kts 17°
2026-04-30 11:31 11.66193 125.15208 38935 ft 484 kts 17°
2026-04-30 11:32 11.72672 125.17114 38948 ft 484 kts 17°
2026-04-30 11:32 11.79164 125.19022 38936 ft 485 kts 17°
2026-04-30 11:33 11.88906 125.21888 38940 ft 485 kts 17°
2026-04-30 11:33 11.95353 125.23786 38942 ft 485 kts 17°
2026-04-30 11:34 12.01847 125.25700 38941 ft 485 kts 16°
2026-04-30 11:34 12.08330 125.27610 38939 ft 484 kts 16°
2026-04-30 11:35 12.14808 125.29520 38938 ft 484 kts 16°
2026-04-30 11:35 12.21259 125.31423 38945 ft 484 kts 16°
2026-04-30 11:36 12.27728 125.33332 38939 ft 484 kts 16°
2026-04-30 11:36 12.34201 125.35244 38940 ft 484 kts 16°
2026-04-30 11:37 12.40641 125.37146 38937 ft 484 kts 16°
2026-04-30 11:37 12.47133 125.39061 38937 ft 485 kts 16°
2026-04-30 11:38 12.53603 125.40970 38953 ft 484 kts 16°
2026-04-30 11:38 12.60087 125.42885 38953 ft 484 kts 16°
2026-04-30 11:39 12.66563 125.44799 38954 ft 485 kts 16°
2026-04-30 11:39 12.73004 125.46703 38953 ft 485 kts 16°
2026-04-30 11:40 12.79490 125.48622 38950 ft 484 kts 16°
2026-04-30 11:40 12.85974 125.50541 38952 ft 484 kts 16°
2026-04-30 11:41 12.92459 125.52462 38946 ft 485 kts 15°
2026-04-30 11:41 12.98951 125.54386 38952 ft 485 kts 15°
2026-04-30 11:42 13.05396 125.56296 38938 ft 485 kts 16°
2026-04-30 11:42 13.11880 125.58220 38941 ft 485 kts 16°
2026-04-30 11:43 13.18369 125.60146 38954 ft 485 kts 15°
2026-04-30 11:43 13.24849 125.62072 38944 ft 485 kts 15°
2026-04-30 11:44 13.31328 125.64003 38944 ft 485 kts 15°
2026-04-30 11:44 13.37806 125.65935 38955 ft 485 kts 15°
2026-04-30 11:45 13.44280 125.67868 38949 ft 483 kts 14°
2026-04-30 11:45 13.50686 125.69782 38960 ft 481 kts 15°
2026-04-30 11:46 13.57105 125.71699 38950 ft 480 kts 15°
2026-04-30 11:46 13.63525 125.73618 38955 ft 480 kts 15°
2026-04-30 11:47 13.69952 125.75540 38955 ft 481 kts 14°
2026-04-30 11:47 13.76368 125.77460 38963 ft 480 kts 15°
2026-04-30 11:48 13.82782 125.79381 38953 ft 480 kts 14°
2026-04-30 11:48 13.89195 125.81302 38955 ft 480 kts 15°
2026-04-30 11:49 13.95610 125.83226 38955 ft 480 kts 15°
2026-04-30 11:49 14.02040 125.85154 38961 ft 481 kts 15°
2026-04-30 11:50 14.08440 125.87075 38961 ft 482 kts 15°
2026-04-30 11:50 14.14883 125.89010 38965 ft 482 kts 15°
2026-04-30 11:51 14.21320 125.90945 38963 ft 482 kts 15°
2026-04-30 11:51 14.27727 125.92871 38965 ft 481 kts 15°
2026-04-30 11:52 14.34168 125.94809 38965 ft 481 kts 15°
2026-04-30 11:52 14.40475 125.97116 38965 ft 482 kts 26°
2026-04-30 11:53 14.45882 126.01181 38965 ft 484 kts 46°
2026-04-30 11:53 14.47984 126.03890 38968 ft 484 kts 57°
2026-04-30 11:53 14.49571 126.06952 38966 ft 485 kts 68°
2026-04-30 11:54 14.51006 126.13707 38965 ft 484 kts 89°
2026-04-30 11:54 14.50801 126.20624 38962 ft 485 kts 94°
2026-04-30 11:55 14.50321 126.27572 38959 ft 486 kts 95°
2026-04-30 11:55 14.49839 126.34529 38964 ft 486 kts 94°
2026-04-30 11:56 14.49396 126.41499 38970 ft 486 kts 94°
2026-04-30 11:56 14.48973 126.48471 38969 ft 486 kts 94°
2026-04-30 11:57 14.48552 126.55454 38961 ft 487 kts 94°
2026-04-30 11:57 14.48127 126.62426 38965 ft 487 kts 95°
2026-04-30 11:58 14.47700 126.69361 38963 ft 487 kts 95°
2026-04-30 11:58 14.47270 126.76333 38962 ft 487 kts 94°
2026-04-30 11:59 14.46836 126.83308 38966 ft 487 kts 95°
2026-04-30 11:59 14.46401 126.90288 38965 ft 487 kts 95°
2026-04-30 12:00 14.46038 126.96083 38971 ft 487 kts 95°
2026-04-30 12:00 14.45599 127.03055 38982 ft 487 kts 95°
2026-04-30 12:01 14.45158 127.10031 38974 ft 486 kts 95°
2026-04-30 12:01 14.44716 127.16995 38975 ft 486 kts 95°
2026-04-30 12:02 14.44272 127.23956 38965 ft 487 kts 94°
2026-04-30 12:02 14.43824 127.30926 38969 ft 487 kts 94°
2026-04-30 12:03 14.43149 127.41402 38969 ft 488 kts 94°
2026-04-30 12:04 14.42696 127.48388 38969 ft 488 kts 94°
2026-04-30 12:04 14.42244 127.55330 38980 ft 488 kts 94°
2026-04-30 12:05 14.41787 127.62313 38967 ft 488 kts 94°
2026-04-30 12:05 14.41327 127.69311 38973 ft 488 kts 94°
2026-04-30 12:06 14.40866 127.76284 38966 ft 488 kts 94°
2026-04-30 12:06 14.40404 127.83261 38981 ft 488 kts 94°
2026-04-30 12:07 14.39939 127.90238 38964 ft 488 kts 94°
2026-04-30 12:07 14.39472 127.97214 38971 ft 487 kts 94°
2026-04-30 12:08 14.39003 128.04185 38967 ft 487 kts 94°
2026-04-30 12:08 14.38532 128.11161 38979 ft 487 kts 94°
2026-04-30 12:09 14.38060 128.18121 38965 ft 487 kts 94°
2026-04-30 12:09 14.37586 128.25091 38969 ft 486 kts 94°
2026-04-30 12:10 14.37110 128.32045 38977 ft 486 kts 94°
2026-04-30 12:10 14.36635 128.38958 38975 ft 487 kts 94°
2026-04-30 12:11 14.36155 128.45923 38963 ft 487 kts 94°
2026-04-30 12:11 14.35672 128.52889 38965 ft 487 kts 94°
2026-04-30 12:12 14.35187 128.59862 38972 ft 487 kts 94°
2026-04-30 12:12 14.34700 128.66837 38961 ft 487 kts 94°
2026-04-30 12:13 14.34211 128.73800 38977 ft 487 kts 94°
2026-04-30 12:13 14.33721 128.80759 38976 ft 487 kts 94°
2026-04-30 12:14 14.33228 128.87719 38965 ft 487 kts 94°
2026-04-30 12:14 14.32736 128.94641 38977 ft 486 kts 94°
2026-04-30 12:15 14.32239 129.01604 38982 ft 486 kts 95°
2026-04-30 12:15 14.31741 129.08568 38980 ft 487 kts 95°
2026-04-30 12:16 14.31243 129.15487 38981 ft 487 kts 95°
2026-04-30 12:16 14.30740 129.22446 38976 ft 486 kts 95°
2026-04-30 12:17 14.29981 129.32910 38976 ft 487 kts 95°
2026-04-30 12:17 14.29475 129.39836 38978 ft 487 kts 95°
2026-04-30 12:18 14.28965 129.46805 38979 ft 487 kts 95°
2026-04-30 12:18 14.28455 129.53733 38979 ft 486 kts 95°
2026-04-30 12:19 14.27941 129.60692 38976 ft 487 kts 95°
2026-04-30 12:19 14.27424 129.67663 38976 ft 487 kts 95°
2026-04-30 12:20 14.26907 129.74617 38979 ft 487 kts 95°
2026-04-30 12:20 14.26386 129.81586 38980 ft 487 kts 95°
2026-04-30 12:21 14.25880 129.88528 38978 ft 487 kts 92°
2026-04-30 12:21 14.26563 129.95448 38979 ft 486 kts 74°
2026-04-30 12:22 14.27719 129.98717 38979 ft 485 kts 63°
2026-04-30 12:22 14.29425 130.01718 38962 ft 484 kts 52°
2026-04-30 12:22 14.34210 130.06524 38982 ft 480 kts 35°
2026-04-30 12:23 14.39670 130.10461 38983 ft 481 kts 32°
2026-04-30 12:23 14.45245 130.14284 38983 ft 481 kts 32°
2026-04-30 12:24 14.50813 130.18136 38985 ft 481 kts 32°
2026-04-30 12:24 14.56360 130.22023 38979 ft 481 kts 33°
2026-04-30 12:25 14.61894 130.25921 38988 ft 482 kts 33°
2026-04-30 12:25 14.67429 130.29825 38984 ft 481 kts 33°
2026-04-30 12:26 14.72917 130.33696 38988 ft 481 kts 32°
2026-04-30 12:26 14.78443 130.37594 38985 ft 481 kts 32°
2026-04-30 12:27 14.83971 130.41497 38976 ft 481 kts 32°
2026-04-30 12:27 14.89504 130.45404 38993 ft 482 kts 33°
2026-04-30 12:28 14.95034 130.49314 38994 ft 481 kts 32°
2026-04-30 12:28 15.00567 130.53228 38987 ft 481 kts 32°
2026-04-30 12:29 15.06095 130.57139 38998 ft 481 kts 33°
2026-04-30 12:29 15.11585 130.61027 39002 ft 481 kts 33°
2026-04-30 12:30 15.17122 130.64951 38986 ft 481 kts 33°
2026-04-30 12:30 15.22647 130.68869 39000 ft 481 kts 32°
2026-04-30 12:31 15.28173 130.72790 38998 ft 481 kts 33°
2026-04-30 12:31 15.33698 130.76713 38998 ft 481 kts 32°
2026-04-30 12:32 15.39213 130.80631 39008 ft 481 kts 33°
2026-04-30 12:32 15.44727 130.84552 38994 ft 481 kts 33°
2026-04-30 12:33 15.50242 130.88475 38998 ft 481 kts 33°
2026-04-30 12:33 15.55722 130.92376 39001 ft 480 kts 33°
2026-04-30 12:34 15.61232 130.96301 39003 ft 480 kts 33°
2026-04-30 12:34 15.66740 131.00227 39004 ft 480 kts 32°
2026-04-30 12:35 15.72241 131.04151 39006 ft 480 kts 32°
2026-04-30 12:35 15.77748 131.08082 39011 ft 480 kts 33°
2026-04-30 12:36 15.83220 131.11990 39011 ft 480 kts 33°
2026-04-30 12:36 15.88716 131.15919 39013 ft 479 kts 32°
2026-04-30 12:37 15.94213 131.19850 39013 ft 479 kts 32°
2026-04-30 12:37 15.99704 131.23780 39014 ft 479 kts 32°
2026-04-30 12:38 16.05198 131.27714 39013 ft 480 kts 32°
2026-04-30 12:38 16.10697 131.31656 39015 ft 480 kts 32°
2026-04-30 12:39 16.16190 131.35595 39014 ft 479 kts 32°
2026-04-30 12:39 16.21650 131.39514 39018 ft 479 kts 32°
2026-04-30 12:40 16.27143 131.43458 39016 ft 480 kts 32°
2026-04-30 12:40 16.32641 131.47409 39022 ft 480 kts 32°
2026-04-30 12:41 16.38138 131.51363 39025 ft 480 kts 32°
2026-04-30 12:41 16.43630 131.55315 39025 ft 480 kts 32°
2026-04-30 12:42 16.49128 131.59274 39024 ft 480 kts 32°
2026-04-30 12:42 16.54621 131.63233 39025 ft 480 kts 32°
2026-04-30 12:43 16.60083 131.67172 39026 ft 480 kts 32°
2026-04-30 12:43 16.65581 131.71139 39026 ft 480 kts 32°
2026-04-30 12:44 16.71076 131.75108 39028 ft 481 kts 32°
2026-04-30 12:44 16.76579 131.79085 39026 ft 480 kts 32°
2026-04-30 12:45 16.82067 131.83055 39028 ft 480 kts 32°
2026-04-30 12:45 16.87555 131.87027 39032 ft 479 kts 32°
2026-04-30 12:46 16.93001 131.90971 39032 ft 479 kts 32°
2026-04-30 12:46 16.98482 131.94943 39031 ft 479 kts 32°
2026-04-30 12:47 17.03082 131.98279 39031 ft 479 kts 32°
2026-04-30 12:47 17.08527 132.02232 39037 ft 479 kts 32°
2026-04-30 12:48 17.14005 132.06211 39034 ft 478 kts 32°
2026-04-30 12:48 17.19468 132.10181 39037 ft 478 kts 32°
2026-04-30 12:49 17.24930 132.14154 39039 ft 478 kts 32°
2026-04-30 12:49 17.30404 132.18138 39043 ft 478 kts 32°
2026-04-30 12:50 17.35834 132.22093 39039 ft 478 kts 32°
2026-04-30 12:50 17.41294 132.26074 39040 ft 478 kts 32°
2026-04-30 12:51 17.46755 132.30057 39039 ft 478 kts 32°
2026-04-30 12:51 17.52213 132.34042 39044 ft 478 kts 32°
2026-04-30 12:52 17.57632 132.38001 39043 ft 478 kts 32°
2026-04-30 12:52 17.63084 132.41987 39043 ft 478 kts 32°
2026-04-30 12:53 17.68538 132.45978 39043 ft 477 kts 32°
2026-04-30 12:53 17.73994 132.49973 39042 ft 477 kts 32°
2026-04-30 12:54 17.79408 132.53940 39045 ft 477 kts 32°
2026-04-30 12:54 17.84849 132.57930 39045 ft 477 kts 32°
2026-04-30 12:55 17.90301 132.61932 39051 ft 477 kts 32°
2026-04-30 12:55 17.95750 132.65933 39051 ft 477 kts 32°
2026-04-30 12:56 18.01192 132.69934 39048 ft 477 kts 32°
2026-04-30 12:56 18.06598 132.73910 39053 ft 477 kts 32°
2026-04-30 12:57 18.12037 132.77914 39055 ft 477 kts 32°
2026-04-30 12:57 18.17492 132.81933 39054 ft 478 kts 32°
2026-04-30 12:58 18.22935 132.85946 39055 ft 478 kts 32°
2026-04-30 12:58 18.28383 132.89966 39058 ft 478 kts 32°
2026-04-30 12:59 18.33793 132.93961 39054 ft 478 kts 32°
2026-04-30 12:59 18.39238 132.97985 39061 ft 479 kts 32°
2026-04-30 13:00 18.44693 133.02019 39064 ft 479 kts 32°
2026-04-30 13:00 18.50147 133.06056 39061 ft 478 kts 32°
2026-04-30 13:01 18.55598 133.10095 39059 ft 478 kts 32°
2026-04-30 13:01 18.61051 133.14138 39061 ft 479 kts 32°
2026-04-30 13:02 18.66465 133.18154 39066 ft 479 kts 32°
2026-04-30 13:02 18.71916 133.22202 39061 ft 479 kts 32°
2026-04-30 13:03 18.77373 133.26257 39069 ft 479 kts 32°
2026-04-30 13:03 18.82817 133.30307 39062 ft 478 kts 32°
2026-04-30 13:04 18.88280 133.34372 39061 ft 482 kts 32°
2026-04-30 13:04 18.93739 133.38438 39066 ft 484 kts 32°
2026-04-30 13:05 18.99240 133.42540 39065 ft 484 kts 32°
2026-04-30 13:06 19.07503 133.48708 39056 ft 483 kts 32°
2026-04-30 13:06 19.13002 133.52816 39058 ft 483 kts 32°
2026-04-30 13:07 19.18453 133.56893 39065 ft 483 kts 32°
2026-04-30 13:07 19.23945 133.61002 39066 ft 484 kts 32°
2026-04-30 13:08 19.29445 133.65121 39071 ft 483 kts 32°
2026-04-30 13:08 19.34935 133.69237 39067 ft 483 kts 32°
2026-04-30 13:09 19.40420 133.73353 39073 ft 483 kts 31°
2026-04-30 13:09 19.45907 133.77472 39068 ft 484 kts 31°
2026-04-30 13:10 19.51372 133.81579 39073 ft 484 kts 32°
2026-04-30 13:10 19.56858 133.85705 39072 ft 483 kts 32°
2026-04-30 13:11 19.62347 133.89838 39070 ft 483 kts 31°
2026-04-30 13:11 19.67839 133.93976 39071 ft 484 kts 31°
2026-04-30 13:12 19.73323 133.98111 39074 ft 484 kts 31°
2026-04-30 13:12 19.78789 134.02236 39072 ft 484 kts 31°
2026-04-30 13:13 19.87015 134.08451 39067 ft 483 kts 31°
2026-04-30 13:14 19.95245 134.14678 39071 ft 483 kts 31°
2026-04-30 13:14 20.03471 134.20909 39070 ft 484 kts 31°
2026-04-30 13:15 20.11666 134.27125 39072 ft 484 kts 31°
2026-04-30 13:16 20.17161 134.31298 39072 ft 484 kts 31°
2026-04-30 13:16 20.22650 134.35469 39072 ft 484 kts 31°
2026-04-30 13:17 20.30843 134.41703 39075 ft 485 kts 31°
2026-04-30 13:18 20.39051 134.47957 39072 ft 484 kts 31°
2026-04-30 13:18 20.47278 134.54233 39072 ft 484 kts 31°
2026-04-30 13:19 20.52738 134.58403 39076 ft 484 kts 31°
2026-04-30 13:19 20.58228 134.62599 39075 ft 484 kts 31°
2026-04-30 13:20 20.63717 134.66799 39072 ft 484 kts 31°
2026-04-30 13:20 20.69146 134.70957 39075 ft 484 kts 31°
2026-04-30 13:21 20.74625 134.75156 39082 ft 484 kts 31°
2026-04-30 13:22 20.82839 134.81459 39079 ft 484 kts 31°
2026-04-30 13:22 20.91027 134.87751 39078 ft 484 kts 31°
2026-04-30 13:23 20.99578 134.93328 39077 ft 474 kts 15°
2026-04-30 13:24 21.05949 134.94693 39079 ft 463 kts 359°
2026-04-30 13:24 21.12341 134.94900 39078 ft 462 kts 356°
2026-04-30 13:25 21.25214 134.94911 39080 ft 462 kts 356°
2026-04-30 13:26 21.41266 134.95042 39079 ft 462 kts 356°
2026-04-30 13:28 21.57313 134.95192 39078 ft 462 kts 356°
2026-04-30 13:28 21.66966 134.95281 39078 ft 462 kts 355°
2026-04-30 13:29 21.79821 134.95400 39075 ft 462 kts 355°
2026-04-30 13:31 21.95896 134.95549 39079 ft 462 kts 355°
2026-04-30 13:32 22.11973 134.95698 39076 ft 462 kts 355°
2026-04-30 13:33 22.23743 134.95807 39072 ft 463 kts 355°
2026-04-30 13:34 22.33435 134.95897 39078 ft 463 kts 355°
2026-04-30 13:35 22.46299 134.96017 39072 ft 463 kts 355°
2026-04-30 13:36 22.59176 134.96137 39072 ft 463 kts 355°
2026-04-30 13:36 22.68863 134.96227 39072 ft 464 kts 355°
2026-04-30 13:37 22.78516 134.96318 39078 ft 464 kts 356°
2026-04-30 13:38 22.88240 134.96408 39070 ft 466 kts 356°
2026-04-30 13:39 23.01207 134.96531 39076 ft 467 kts 356°
2026-04-30 13:40 23.10965 134.96622 39069 ft 469 kts 356°
2026-04-30 13:40 23.17493 134.96684 39071 ft 469 kts 356°
2026-04-30 13:41 23.24023 134.96746 39069 ft 469 kts 356°
2026-04-30 13:41 23.30555 134.96807 39068 ft 469 kts 356°
2026-04-30 13:42 23.37043 134.96869 39062 ft 469 kts 356°
2026-04-30 13:42 23.46835 134.96961 39068 ft 469 kts 356°
2026-04-30 13:43 23.53378 134.97022 39064 ft 471 kts 356°
2026-04-30 13:43 23.59941 134.97085 39066 ft 471 kts 356°
2026-04-30 13:44 23.66511 134.97147 39061 ft 471 kts 356°
2026-04-30 13:44 23.73034 134.97210 39060 ft 472 kts 356°
2026-04-30 13:45 23.82897 134.97303 39065 ft 472 kts 356°
2026-04-30 13:46 23.89490 134.97366 39063 ft 472 kts 356°
2026-04-30 13:46 23.96031 134.97428 39066 ft 473 kts 356°
2026-04-30 13:47 24.02594 134.97491 39059 ft 473 kts 356°
2026-04-30 13:47 24.09209 134.97554 39058 ft 473 kts 356°
2026-04-30 13:48 24.15758 134.97617 39064 ft 473 kts 356°
2026-04-30 13:48 24.22374 134.97680 39063 ft 474 kts 356°
2026-04-30 13:49 24.28942 134.97743 39059 ft 474 kts 356°
2026-04-30 13:49 24.35546 134.97807 39059 ft 474 kts 356°
2026-04-30 13:50 24.42155 134.97870 39054 ft 475 kts 356°
2026-04-30 13:50 24.52096 134.97965 39059 ft 475 kts 356°
2026-04-30 13:51 24.58670 134.98029 39060 ft 475 kts 356°
2026-04-30 13:51 24.65313 134.98093 39059 ft 476 kts 356°
2026-04-30 13:52 24.71917 134.98156 39052 ft 477 kts 356°
2026-04-30 13:52 24.78568 134.98221 39053 ft 477 kts 356°
2026-04-30 13:53 24.85172 134.98285 39057 ft 478 kts 356°
2026-04-30 13:53 24.91848 134.98349 39055 ft 479 kts 356°
2026-04-30 13:54 24.98507 134.98413 39050 ft 479 kts 356°
2026-04-30 13:54 25.01849 134.98447 38935 ft 481 kts 357°
2026-04-30 13:54 25.05164 134.98481 40157 ft 483 kts 360°
2026-04-30 13:55 25.08527 134.98515 38956 ft 483 kts 356°
2026-04-30 13:55 25.11897 134.98548 39040 ft 481 kts 356°
2026-04-30 13:55 25.18588 134.98612 39049 ft 480 kts 356°
2026-04-30 13:56 25.25245 134.98675 39060 ft 480 kts 356°
2026-04-30 13:56 25.31955 134.98739 39047 ft 481 kts 356°
2026-04-30 13:57 25.38622 134.98803 39048 ft 482 kts 356°
2026-04-30 13:57 25.45334 134.98877 39046 ft 482 kts 357°
2026-04-30 13:58 25.55220 135.01486 39047 ft 494 kts 18°
2026-04-30 13:59 25.61537 135.04427 39048 ft 495 kts 20°
2026-04-30 13:59 25.67856 135.07517 39048 ft 495 kts 20°
2026-04-30 14:00 25.74177 135.10594 39051 ft 496 kts 20°
2026-04-30 14:00 25.83648 135.15156 39050 ft 497 kts 20°
2026-04-30 14:01 25.90004 135.18212 39048 ft 497 kts 20°
2026-04-30 14:01 25.96340 135.21263 39129 ft 496 kts 20°
2026-04-30 14:02 25.99505 135.22789 39325 ft 496 kts 19°
2026-04-30 14:02 26.02640 135.24301 39464 ft 496 kts 19°
2026-04-30 14:02 26.05844 135.25848 39634 ft 496 kts 19°
2026-04-30 14:02 26.08977 135.27361 39811 ft 496 kts 19°
2026-04-30 14:03 26.12147 135.28893 39988 ft 496 kts 19°
2026-04-30 14:03 26.15344 135.30438 40044 ft 497 kts 19°
2026-04-30 14:03 26.21662 135.33495 40044 ft 497 kts 19°
2026-04-30 14:04 26.28007 135.36571 40048 ft 497 kts 19°
2026-04-30 14:04 26.34356 135.39651 40044 ft 497 kts 19°
2026-04-30 14:05 26.40717 135.42741 40045 ft 497 kts 19°
2026-04-30 14:05 26.47030 135.45811 40046 ft 497 kts 19°
2026-04-30 14:06 26.56552 135.50448 40046 ft 498 kts 19°
2026-04-30 14:07 26.66063 135.55089 40045 ft 498 kts 19°
2026-04-30 14:08 26.75612 135.59757 40038 ft 498 kts 19°
2026-04-30 14:08 26.85135 135.64420 40043 ft 499 kts 19°
2026-04-30 14:09 26.91523 135.67552 40035 ft 500 kts 19°
2026-04-30 14:10 27.01065 135.72241 40030 ft 500 kts 19°
2026-04-30 14:10 27.07422 135.75368 40036 ft 500 kts 19°
2026-04-30 14:11 27.13810 135.78515 40040 ft 501 kts 19°
2026-04-30 14:11 27.20195 135.81665 40029 ft 501 kts 19°
2026-04-30 14:12 27.26551 135.84804 40027 ft 501 kts 19°
2026-04-30 14:12 27.32940 135.87961 40029 ft 501 kts 19°
2026-04-30 14:13 27.39294 135.91103 40033 ft 502 kts 19°
2026-04-30 14:13 27.45700 135.94275 40026 ft 503 kts 19°
2026-04-30 14:14 27.52118 135.97458 40024 ft 503 kts 19°
2026-04-30 14:14 27.58521 136.00638 40026 ft 502 kts 19°
2026-04-30 14:15 27.64864 136.03792 40027 ft 502 kts 19°
2026-04-30 14:15 27.71264 136.06977 40026 ft 502 kts 19°
2026-04-30 14:16 27.77676 136.10174 40029 ft 502 kts 19°
2026-04-30 14:16 27.84071 136.13365 40026 ft 502 kts 19°
2026-04-30 14:17 27.90426 136.16541 40024 ft 502 kts 19°
2026-04-30 14:17 27.96821 136.19741 40018 ft 501 kts 19°
2026-04-30 14:18 28.03222 136.22949 40017 ft 501 kts 19°
2026-04-30 14:18 28.12748 136.27730 40019 ft 501 kts 19°
2026-04-30 14:19 28.22334 136.32549 40024 ft 501 kts 19°
2026-04-30 14:20 28.28687 136.35749 40026 ft 501 kts 19°
2026-04-30 14:20 28.37187 136.40037 40017 ft 501 kts 19°
2026-04-30 14:21 28.43567 136.43261 40020 ft 500 kts 19°
2026-04-30 14:22 28.53091 136.48080 40016 ft 501 kts 19°
2026-04-30 14:22 28.62628 136.52916 40012 ft 501 kts 19°
2026-04-30 14:23 28.75390 136.59403 40012 ft 501 kts 19°
2026-04-30 14:24 28.84925 136.64260 40012 ft 502 kts 19°
2026-04-30 14:25 28.97657 136.70762 40011 ft 502 kts 19°
2026-04-30 14:26 29.07229 136.75661 40007 ft 504 kts 19°
2026-04-30 14:27 29.16842 136.80592 40005 ft 504 kts 19°
2026-04-30 14:27 29.23210 136.83864 40009 ft 504 kts 19°
2026-04-30 14:28 29.32859 136.88828 40004 ft 507 kts 19°
2026-04-30 14:28 29.39298 136.92148 40004 ft 507 kts 19°
2026-04-30 14:29 29.52132 136.98779 39998 ft 508 kts 19°
2026-04-30 14:31 29.68301 137.07160 40004 ft 509 kts 19°
2026-04-30 14:31 29.77957 137.12179 39984 ft 510 kts 19°
2026-04-30 14:32 29.87685 137.17245 39990 ft 510 kts 19°
2026-04-30 14:33 29.94156 137.20622 39996 ft 510 kts 19°
2026-04-30 14:33 30.03875 137.25705 39988 ft 511 kts 19°
2026-04-30 14:34 30.10313 137.29081 39996 ft 511 kts 19°
2026-04-30 14:34 30.16804 137.32492 39993 ft 512 kts 19°
2026-04-30 14:35 30.26536 137.37614 39990 ft 512 kts 19°
2026-04-30 14:36 30.32980 137.41011 39988 ft 512 kts 19°
2026-04-30 14:36 30.39479 137.44442 39985 ft 512 kts 19°
2026-04-30 14:37 30.45977 137.47878 39987 ft 512 kts 19°
2026-04-30 14:37 30.52438 137.51300 39989 ft 512 kts 19°
2026-04-30 14:38 30.58941 137.54749 39985 ft 513 kts 19°
2026-04-30 14:38 30.65443 137.58202 39985 ft 513 kts 19°
2026-04-30 14:39 30.71953 137.61665 39986 ft 513 kts 19°
2026-04-30 14:39 30.78418 137.65109 39982 ft 513 kts 19°
2026-04-30 14:40 30.88123 137.70288 39976 ft 513 kts 19°
2026-04-30 14:40 30.94617 137.73761 39979 ft 513 kts 19°
2026-04-30 14:41 31.01113 137.77235 39979 ft 513 kts 19°
2026-04-30 14:41 31.07605 137.80706 40002 ft 513 kts 19°
2026-04-30 14:42 31.14051 137.84159 39979 ft 511 kts 19°
2026-04-30 14:42 31.20530 137.87634 39970 ft 511 kts 19°
2026-04-30 14:43 31.26973 137.91095 39976 ft 511 kts 19°
2026-04-30 14:43 31.33447 137.94578 39969 ft 511 kts 19°
2026-04-30 14:44 31.39890 137.98050 39971 ft 511 kts 19°
2026-04-30 14:44 31.46362 138.01544 39978 ft 511 kts 19°
2026-04-30 14:45 31.52818 138.05034 39970 ft 510 kts 19°
2026-04-30 14:45 31.59275 138.08530 39976 ft 510 kts 19°
2026-04-30 14:46 31.65692 138.12008 39972 ft 511 kts 19°
2026-04-30 14:46 31.72159 138.15519 39971 ft 512 kts 19°
2026-04-30 14:47 31.78656 138.19053 39972 ft 512 kts 19°
2026-04-30 14:47 31.85100 138.22564 39979 ft 512 kts 19°
2026-04-30 14:48 31.91592 138.26105 39972 ft 514 kts 19°
2026-04-30 14:48 31.98050 138.29633 39971 ft 515 kts 19°
2026-04-30 14:49 32.04558 138.33195 39968 ft 515 kts 19°
2026-04-30 14:49 32.11040 138.36749 39968 ft 515 kts 19°
2026-04-30 14:50 32.20820 138.42120 39977 ft 517 kts 19°
2026-04-30 14:51 32.30567 138.47486 39974 ft 516 kts 19°
2026-04-30 14:52 32.40335 138.52878 39992 ft 516 kts 19°
2026-04-30 14:52 32.50064 138.58248 40057 ft 515 kts 18°
2026-04-30 14:53 32.56580 138.61834 40186 ft 512 kts 18°
2026-04-30 14:53 32.59771 138.63601 40200 ft 500 kts 18°
2026-04-30 14:54 32.65931 138.67050 40119 ft 478 kts 18°
2026-04-30 14:54 32.71811 138.70385 39844 ft 462 kts 18°
2026-04-30 14:55 32.77221 138.73485 39496 ft 449 kts 18°
2026-04-30 14:55 32.78608 138.74283 39415 ft 445 kts 21°
2026-04-30 14:55 32.84223 138.77516 38519 ft 453 kts 19°